Regional Weather Roundup
Issued by NWS Charleston, SC

Home | Current Version | Previous Version | Text Only | Print | Product List | Glossary On
Versions: 1 2 3 4 5 6 7 8 9 10 11 12 13 14 15 16 17 18 19 20 21 22 23 24 25 26 27 28 29 30 31 32 33 34 35 36 37 38 39 40 41 42 43 44 45 46 47 48 49 50
000
ASUS42 KCHS 210825
RWRCHS

REGIONAL WEATHER ROUNDUP
NATIONAL WEATHER SERVICE CHARLESTON SC
400 AM EDT TUE OCT 21 2014

NOTE: "FAIR" INDICATES FEW OR NO CLOUDS BELOW 12,000 FEET WITH NO
SIGNIFICANT WEATHER AND/OR OBSTRUCTIONS TO VISIBILITY.

NOT ALL STATIONS ARE QUALITY CONTROLLED BY THE NATIONAL
WEATHER SERVICE. USE DATA WITH CAUTION...ESPECIALLY
DEWPOINT OBSERVATIONS.

SCZ027-030-031-034>040-042>050-210900-
...SOUTH CAROLINA...

CITY           SKY/WX    TMP DP  RH WIND       PRES   REMARKS
N CHARLESTON   PTCLDY    64  60  87 CALM      29.94F
WATERFRONT PRK   N/A     70 N/A N/A S3          N/A
FORT JOHNSON   NOT AVBL
JOHNS ISLAND   PTSUNNY   64  64 100 CALM      29.94F
PINOPOLIS        N/A     66  61  82 SW2       29.87S
MONCKS CORNER  FAIR      57  57 100 CALM      29.94S
SUMMERVILLE    FAIR      57  57 100 CALM      29.96S
BEAUFORT MCAS  MOCLDY    66  64  93 CALM      29.95F
BEAUFORT ARPT  CLOUDY    66  66 100 CALM      29.94F
HILTON HEAD IS CLOUDY    66  66 100 CALM      29.95F
GEORGETOWN     NOT AVBL
WALTERBORO     MOSUNNY   59 N/A N/A CALM      29.96S
ORANGEBURG     CLEAR     56  52  86 CALM      29.95F
BARNWELL       FAIR      54  52  94 CALM      29.96F
AIKEN          FAIR      50  50 100 CALM      29.99F
MANNING        FAIR      55 N/A N/A CALM      29.95S
KINGSTREE      NOT AVBL
COLUMBIA       CLEAR     53  49  86 CALM      29.95F
SUMTER         CLEAR     57  53  87 W1        29.93F
FLORENCE       PTCLDY    56  54  93 CALM      29.94F
MYRTLE BEACH   CLEAR     59  55  88 CALM      29.94S
N MYRTLE BEACH CLEAR     56  54  93 CALM      29.93F FOG

$$

GAZ063-065-086>088-099>101-113>116-118-119-134-136>141-150-210900-
...GEORGIA...

CITY           SKY/WX    TMP DP  RH WIND       PRES   REMARKS
SAVANNAH ARPT  CLOUDY    66  64  94 NW3       29.95F
HUNTER AAF     MOCLDY    64  64 100 CALM      29.93S
FORT STEWART   MOCLDY    64  63  94 CALM      29.94S
STATESBORO     NOT AVBL
SYLVANIA       SUNNY     59  58  97 CALM      29.97F
CLAXTON        FAIR      61  61 100 CALM      29.96F
THOMSON        CLEAR     49  49 100 CALM      30.01F
AUGUSTA-BUSH   CLEAR     47  46  97 S3        29.97F
AUGUSTA-DANIEL CLEAR     59  50  72 CALM      29.97F
SWAINSBORO     FAIR      54  54 100 MISG      29.98F
VIDALIA        PTCLDY    57  55  94 CALM      29.97S
ALMA           PTCLDY    59  57  93 CALM      29.97S
WAYCROSS       CLEAR     65  65  99 CALM      29.95F FOG
JESUP          FAIR      64  63  94 CALM      29.95F
BRUNSWICK      PTCLDY    64  63  94 NW7       29.95S
SAINT SIMONS   PTCLDY    65  65 100 W6        29.94F

$$

SCZ027-028-034-036>038-045-046-048>050-GAZ119-141-210900-
...LAKE AND SUPPLEMENTAL COASTAL OBSERVATIONS...

STATION/POSITION TIME  TEMP    WIND        PRES    WAVE   SWELL
                       AIR SEA DIR/SP/G            HT/PER HT/PER/DIR
                 (UTC) (F)     (DEG/KT/KT) (MB)    (FT/S) (FT/S/D)
UPR LAKE MARION  NOT AVBL
WINYAH BAY       0800   58     300/  1     1013.0F
LAKE MURRAY      0700   61        CALM     1013.9F
ACE BASIN NERRS  0800   65        CALM     1014.0S
FORT PULASKI     0800   67     340/  4/  4 1014.2F
SAPELO ISLAND    NOT AVBL

$$

ANZ835-935-AMZ111-154-330-350-352-354-374-450-454-472-210900-
...C-MAN AND BUOY OBSERVATIONS...

STATION/POSITION TIME  TEMP    WIND        PRES    WAVE   SWELL
                       AIR SEA DIR/SP/G            HT/PER HT/PER/DIR
                 (UTC) (F)     (DEG/KT/KT) (MB)    (FT/S) (FT/S/D)
FOLLY BEACH CMAN 0800   67     320/  3/  3 1014.3F
BUOY 41004       0800   74 79   70/  4/  4 1013.2F   2/ 9   2/ 9
BUOY 41008       0800   76 76  220/ 12/ 14 1013.4F   2/ 9   2/ 80/ 9
5E ST. MARYS GA  0800      77                N/A     2/ 9
FRYING PAN BUOY  0800   73 75  270/ 10/ 14 1014.2F   3/ 4   2/ 90/ 9
BUOY 41025       0800   67     300/ 12/ 14 1013.5F   4/ 4   2/ 70/ 8
CAPE LOOKOUT NC  0800   69     280/  2/  2 1012.9F
BUOY 41002       0656   73 80  180/ 14/ 16 1014.7    4/ 9   3/100/ 9
BUOY 41010       0800   80 80  220/  8/ 10 1013.7F   3/ 8   2/ 70/ 8
BUOY 41012       NOT AVBL
ST AUGUSTINE FL  0800   70     250/  6/  6 1014.6F
CAPERS NEARSHORE 0700   71      30/  6/  6   N/A
FRIPP NEARSHORE  NOT AVBL


$$



USA.gov is the U.S. government's official web portal to all federal, state and local government web resources and services.